Weather History for Montreal Mirabel, QC

Change the Weather History Date:

Sunday, May 12, 2013

  Actual Average Record
Temperature  
Mean Temperature 46 °F -  
Max Temperature 51 °F 62 °F 75 °F (2004)
Min Temperature 39 °F 41 °F 32 °F (2005)
Degree Days  
Heating Degree Days 19    
Moisture  
Dew Point 40 °F    
Average Humidity 74    
Maximum Humidity 94    
Minimum Humidity 41    
Precipitation  
Precipitation 0.00 in - - ()
Sea Level Pressure  
Sea Level Pressure 29.65 in    
Wind  
Wind Speed 8 mph ()    
Max Wind Speed 20 mph    
Max Gust Speed 33 mph    
Visibility 8.2 miles    
Events Rain    
Averages and records for this station are not official NWS values.
T = Trace of Precipitation, MM = Missing Value Source: Averaged Metar Reports

Daily Weather History Graph

Daily Weather History Graph

Search for Another Location

Airport:

Trip Planner

Search our weather history database for the weather conditions in past years. The results will help you decide how hot, cold, wet, or windy it might be!

Date:

Astronomy

May. 12, 2013 Rise Set
Actual Time 5:28 AM EDT 8:17 PM EDT
Civil Twilight 4:53 AM EDT 8:51 PM EDT
Nautical Twilight 4:10 AM EDT 9:35 PM EDT
Astronomical Twilight 3:19 AM EDT 10:27 PM EDT
Moon 7:19 AM EDT (5/12) 10:43 PM EDT (5/12)
Length of Visible Light 15h 57m
Length of Day
14h 49m
Waxing Crescent, 6% of the Moon is Illuminated
May 12
Waxing Crescent
May 18
First Quarter
May 25
Full
May 31
Last Quarter
Jun 8
New

Hourly Weather History & Observations

Time (EDT) Temp. Windchill Dew Point Humidity Pressure Visibility Wind Dir Wind Speed Gust Speed Precip Events Conditions
12:00 AM 50.0 °F - 48.2 °F 94% 29.70 in 25.0 mi SSW 2.3 mph - N/A Rain Light Rain
1:00 AM 50.0 °F - 48.2 °F 94% 29.70 in 25.0 mi SSW 5.8 mph - N/A   Overcast
2:00 AM 50.0 °F - 48.2 °F 94% 29.68 in 25.0 mi SSW 4.6 mph - N/A Rain Light Rain
2:30 AM 50.0 °F - 48.2 °F 94% 29.68 in 25.0 mi SSW 6.9 mph - N/A   Overcast
3:00 AM 48.2 °F - 46.4 °F 93% 29.67 in 25.0 mi SSW 6.9 mph - N/A   Overcast
4:00 AM 48.2 °F - 46.4 °F 93% 29.66 in 25.0 mi SSW 5.8 mph - N/A   Overcast
5:00 AM 48.2 °F - 46.4 °F 93% 29.64 in 25.0 mi SW 5.8 mph - N/A   Overcast
6:00 AM 48.2 °F - 46.4 °F 93% 29.65 in 8.0 mi SSW 9.2 mph - N/A   Overcast
7:00 AM 50.0 °F - 46.4 °F 87% 29.63 in 8.0 mi SW 8.1 mph 17.3 mph N/A   Mostly Cloudy
8:00 AM 51.8 °F - 46.4 °F 82% 29.62 in 8.0 mi SSW 9.2 mph - N/A   Mostly Cloudy
8:29 AM 50.0 °F - 46.4 °F 87% 29.62 in 8.0 mi SW 8.1 mph - N/A Rain Light Rain Showers
9:00 AM 50.0 °F - 46.4 °F 87% 29.62 in 6.0 mi South 8.1 mph - N/A Rain Light Rain Showers
10:00 AM 50.0 °F - 46.4 °F 87% 29.61 in 3.0 mi SW 9.2 mph - N/A Rain Light Rain Showers
10:41 AM 50.0 °F - 44.6 °F 82% 29.62 in 10.0 mi SW 13.8 mph 21.9 mph N/A   Mostly Cloudy
11:00 AM 51.8 °F - 42.8 °F 71% 29.62 in 15.0 mi WSW 16.1 mph 26.5 mph N/A   Mostly Cloudy
12:00 PM 51.8 °F - 37.4 °F 58% 29.63 in 25.0 mi SW 19.6 mph 29.9 mph N/A   Mostly Cloudy
1:00 PM 51.8 °F - 35.6 °F 54% 29.64 in 25.0 mi WSW 17.3 mph 25.3 mph N/A   Scattered Clouds
2:00 PM 51.8 °F - 33.8 °F 50% 29.64 in 35.0 mi WSW 12.7 mph 26.5 mph N/A   Mostly Cloudy
3:00 PM 51.8 °F - 30.2 °F 44% 29.64 in 40.0 mi SW 15.0 mph 23.0 mph N/A   Mostly Cloudy
4:00 PM 51.8 °F - 30.2 °F 44% 29.64 in 40.0 mi SW 18.4 mph 31.1 mph N/A   Mostly Cloudy
5:00 PM 51.8 °F - 28.4 °F 41% 29.64 in 40.0 mi SW 19.6 mph 33.4 mph N/A   Scattered Clouds
6:00 PM 50.0 °F - 30.2 °F 47% 29.65 in 25.0 mi WSW 12.7 mph 21.9 mph N/A   Mostly Cloudy
7:00 PM 50.0 °F - 30.2 °F 47% 29.66 in 25.0 mi SW 13.8 mph 24.2 mph N/A   Mostly Cloudy
8:00 PM 44.6 °F 39.2 °F 33.8 °F 66% 29.67 in 25.0 mi SW 10.4 mph 29.9 mph N/A   Mostly Cloudy
9:00 PM 42.8 °F 37.0 °F 33.8 °F 70% 29.68 in 25.0 mi SW 10.4 mph 18.4 mph N/A   Mostly Cloudy
10:00 PM 41.0 °F 34.3 °F 33.8 °F 76% 29.69 in 25.0 mi SW 11.5 mph 21.9 mph N/A   Mostly Cloudy
11:00 PM 39.2 °F 30.5 °F 33.8 °F 81% 29.68 in 25.0 mi SSW 16.1 mph - N/A   Scattered Clouds